When you browse on this site, cookies collect data to enhance your experience and personalize the content and advertising you see.
Visit our Privacy Policy to learn more. By continuing to use the site, you agree to this use of cookies and data.
  • en France
  • Liste des pays
  • À 7 jours
  • Température de l'eau
  • Carte satellitaire
  • Carte météo
  • Widgets météo
  • user-avatar
    Se connecter

    Météo par heure à Ghazni

    Ce jour, 17 Juillet, Mercredi

    Heure Température Précipitation Vent Pression Humidité
    00:00 +24°C° 0.1 mm 2 m/s 586 mmHg 53%
    01:00 +24°C° 0.1 mm 2 m/s 586 mmHg 56%
    02:00 +23°C° 0.1 mm 1 m/s 586 mmHg 58%
    03:00 +23°C° 0 mm 1 m/s 586 mmHg 59%
    04:00 +22°C° 0 mm 1 m/s 585 mmHg 60%
    05:00 +22°C° 0 mm 1 m/s 585 mmHg 60%
    06:00 +23°C° 0 mm 1 m/s 586 mmHg 54%
    07:00 +24°C° 0 mm 1 m/s 587 mmHg 48%
    08:00 +25°C° 0 mm 1 m/s 587 mmHg 42%
    09:00 +27°C° 0 mm 1 m/s 588 mmHg 36%
    10:00 +28°C° 0 mm 1 m/s 588 mmHg 29%
    11:00 +30°C° 0 mm 2 m/s 589 mmHg 23%
    12:00 +31°C° 0 mm 2 m/s 588 mmHg 20%
    13:00 +33°C° 0 mm 3 m/s 588 mmHg 17%
    14:00 +35°C° 0 mm 3 m/s 588 mmHg 15%
    15:00 +35°C° 0 mm 3 m/s 588 mmHg 13%
    16:00 +36°C° 0 mm 4 m/s 588 mmHg 12%
    17:00 +36°C° 0 mm 4 m/s 588 mmHg 10%
    18:00 +35°C° 0 mm 4 m/s 588 mmHg 11%
    19:00 +33°C° 0 mm 5 m/s 588 mmHg 11%
    20:00 +32°C° 0 mm 5 m/s 587 mmHg 12%
    21:00 +29°C° 0 mm 4 m/s 587 mmHg 23%
    22:00 +27°C° 0 mm 3 m/s 587 mmHg 34%
    23:00 +26°C° 0 mm 3 m/s 587 mmHg 45%

    Demain, 18 Juillet, Jeudi

    Heure Température Précipitation Vent Pression Humidité
    00:00 +25°C° 0.1 mm 2 m/s 586 mmHg 50%
    01:00 +24°C° 0.1 mm 2 m/s 586 mmHg 55%
    02:00 +24°C° 0.1 mm 1 m/s 586 mmHg 59%
    03:00 +23°C° 0 mm 1 m/s 586 mmHg 60%
    04:00 +23°C° 0 mm 1 m/s 585 mmHg 61%
    05:00 +22°C° 0 mm 1 m/s 585 mmHg 63%
    06:00 +23°C° 0 mm 1 m/s 586 mmHg 57%
    07:00 +24°C° 0 mm 1 m/s 586 mmHg 52%
    08:00 +25°C° 0 mm 1 m/s 587 mmHg 47%
    09:00 +27°C° 0 mm 1 m/s 587 mmHg 39%
    10:00 +29°C° 0 mm 2 m/s 588 mmHg 32%
    11:00 +30°C° 0 mm 2 m/s 588 mmHg 24%
    12:00 +31°C° 0 mm 2 m/s 588 mmHg 21%
    13:00 +34°C° 0 mm 2 m/s 588 mmHg 18%
    14:00 +35°C° 0 mm 2 m/s 588 mmHg 14%
    15:00 +35°C° 0 mm 3 m/s 588 mmHg 14%
    16:00 +36°C° 0 mm 3 m/s 588 mmHg 13%
    17:00 +36°C° 0 mm 3 m/s 588 mmHg 12%
    18:00 +34°C° 0 mm 4 m/s 588 mmHg 16%
    19:00 +33°C° 0 mm 5 m/s 588 mmHg 20%
    20:00 +30°C° 0 mm 6 m/s 587 mmHg 24%
    21:00 +29°C° 0.1 mm 4 m/s 587 mmHg 34%
    22:00 +27°C° 0.1 mm 3 m/s 587 mmHg 44%
    23:00 +26°C° 0.1 mm 1 m/s 587 mmHg 54%

    Après-demain, 19 Juillet, Vendredi

    Heure Température Précipitation Vent Pression Humidité
    00:00 +25°C° 0.2 mm 1 m/s 587 mmHg 56%
    01:00 +25°C° 0.2 mm 2 m/s 586 mmHg 58%
    02:00 +24°C° 0.2 mm 2 m/s 586 mmHg 60%
    03:00 +24°C° 0 mm 1 m/s 586 mmHg 61%
    04:00 +23°C° 0 mm 1 m/s 586 mmHg 62%
    05:00 +23°C° 0 mm 1 m/s 586 mmHg 63%
    06:00 +24°C° 0 mm 1 m/s 586 mmHg 58%
    07:00 +25°C° 0 mm 1 m/s 587 mmHg 52%
    08:00 +26°C° 0 mm 1 m/s 587 mmHg 47%
    09:00 +28°C° 0 mm 1 m/s 588 mmHg 39%
    10:00 +29°C° 0 mm 1 m/s 588 mmHg 32%
    11:00 +31°C° 0 mm 1 m/s 589 mmHg 24%
    12:00 +32°C° 0 mm 2 m/s 589 mmHg 21%
    13:00 +34°C° 0 mm 2 m/s 589 mmHg 18%
    14:00 +35°C° 0 mm 3 m/s 589 mmHg 15%
    15:00 +36°C° 0 mm 3 m/s 589 mmHg 14%
    16:00 +36°C° 0 mm 3 m/s 589 mmHg 13%
    17:00 +36°C° 0 mm 3 m/s 589 mmHg 13%
    18:00 +34°C° 0 mm 5 m/s 588 mmHg 19%
    19:00 +33°C° 0 mm 6 m/s 588 mmHg 26%
    20:00 +30°C° 0 mm 7 m/s 588 mmHg 32%
    21:00 +29°C° 0.4 mm 5 m/s 588 mmHg 38%
    22:00 +28°C° 0.4 mm 4 m/s 588 mmHg 45%
    23:00 +27°C° 0.4 mm 2 m/s 588 mmHg 51%

    20 Juillet, Samedi

    Heure Température Précipitation Vent Pression Humidité
    00:00 +26°C° 0.3 mm 2 m/s 587 mmHg 53%
    01:00 +26°C° 0.3 mm 2 m/s 587 mmHg 55%
    02:00 +25°C° 0.3 mm 2 m/s 587 mmHg 57%
    03:00 +25°C° 0 mm 2 m/s 587 mmHg 58%
    04:00 +24°C° 0 mm 1 m/s 587 mmHg 59%
    05:00 +24°C° 0 mm 1 m/s 587 mmHg 60%
    06:00 +25°C° 0 mm 1 m/s 587 mmHg 55%
    07:00 +26°C° 0 mm 1 m/s 588 mmHg 51%
    08:00 +27°C° 0 mm 1 m/s 588 mmHg 47%
    09:00 +28°C° 0 mm 1 m/s 589 mmHg 39%
    10:00 +30°C° 0 mm 1 m/s 589 mmHg 32%
    11:00 +31°C° 0 mm 1 m/s 590 mmHg 25%
    12:00 +34°C° 0 mm 2 m/s 590 mmHg 21%
    13:00 +35°C° 0 mm 2 m/s 590 mmHg 16%
    14:00 +36°C° 0 mm 2 m/s 590 mmHg 12%
    15:00 +37°C° 0 mm 2 m/s 590 mmHg 11%
    16:00 +37°C° 0 mm 3 m/s 590 mmHg 10%
    17:00 +37°C° 0 mm 3 m/s 589 mmHg 10%
    18:00 +35°C° 0 mm 4 m/s 589 mmHg 17%
    19:00 +33°C° 0 mm 4 m/s 588 mmHg 25%
    20:00 +30°C° 0 mm 4 m/s 588 mmHg 33%
    21:00 +29°C° 0 mm 4 m/s 588 mmHg 35%
    22:00 +29°C° 0 mm 3 m/s 588 mmHg 38%
    23:00 +28°C° 0 mm 2 m/s 588 mmHg 41%

    21 Juillet, Dimanche

    Heure Température Précipitation Vent Pression Humidité
    00:00 +28°C° 0.1 mm 2 m/s 588 mmHg 41%
    01:00 +27°C° 0.1 mm 2 m/s 587 mmHg 42%
    02:00 +26°C° 0.1 mm 2 m/s 587 mmHg 42%
    03:00 +26°C° 0 mm 2 m/s 587 mmHg 38%
    04:00 +25°C° 0 mm 2 m/s 587 mmHg 33%
    05:00 +24°C° 0 mm 2 m/s 586 mmHg 29%
    06:00 +26°C° 0 mm 3 m/s 587 mmHg 24%
    07:00 +27°C° 0 mm 3 m/s 587 mmHg 19%
    08:00 +28°C° 0 mm 4 m/s 588 mmHg 14%
    09:00 +29°C° 0 mm 4 m/s 588 mmHg 12%
    10:00 +31°C° 0 mm 3 m/s 589 mmHg 11%
    11:00 +33°C° 0 mm 3 m/s 589 mmHg 9%
    12:00 +34°C° 0 mm 3 m/s 589 mmHg 9%
    13:00 +35°C° 0 mm 2 m/s 589 mmHg 8%
    14:00 +36°C° 0 mm 2 m/s 588 mmHg 7%
    15:00 +36°C° 0 mm 2 m/s 588 mmHg 7%
    16:00 +36°C° 0 mm 2 m/s 588 mmHg 7%
    17:00 +37°C° 0 mm 2 m/s 588 mmHg 7%
    18:00 +35°C° 0 mm 2 m/s 588 mmHg 8%
    19:00 +34°C° 0 mm 2 m/s 588 mmHg 9%
    20:00 +31°C° 0 mm 2 m/s 587 mmHg 10%
    21:00 +30°C° 0 mm 2 m/s 587 mmHg 12%
    22:00 +29°C° 0 mm 3 m/s 588 mmHg 14%
    23:00 +28°C° 0 mm 3 m/s 588 mmHg 16%

    22 Juillet, Lundi

    Heure Température Précipitation Vent Pression Humidité
    00:00 +27°C° 0 mm 3 m/s 587 mmHg 16%
    01:00 +27°C° 0 mm 4 m/s 587 mmHg 15%
    02:00 +26°C° 0 mm 4 m/s 586 mmHg 15%
    03:00 +25°C° 0 mm 4 m/s 586 mmHg 15%
    04:00 +25°C° 0 mm 4 m/s 586 mmHg 16%
    05:00 +23°C° 0 mm 4 m/s 585 mmHg 16%
    06:00 +25°C° 0 mm 4 m/s 586 mmHg 16%
    07:00 +27°C° 0 mm 4 m/s 587 mmHg 15%
    08:00 +28°C° 0 mm 5 m/s 587 mmHg 14%
    09:00 +29°C° 0 mm 4 m/s 588 mmHg 13%
    10:00 +32°C° 0 mm 4 m/s 588 mmHg 11%
    11:00 +33°C° 0 mm 4 m/s 588 mmHg 10%
    12:00 +34°C° 0 mm 3 m/s 588 mmHg 9%
    13:00 +35°C° 0 mm 3 m/s 588 mmHg 8%
    14:00 +35°C° 0 mm 2 m/s 588 mmHg 7%
    15:00 +36°C° 0 mm 2 m/s 587 mmHg 7%
    16:00 +36°C° 0 mm 2 m/s 587 mmHg 7%
    17:00 +36°C° 0 mm 2 m/s 587 mmHg 7%
    18:00 +35°C° 0 mm 2 m/s 587 mmHg 8%
    19:00 +34°C° 0 mm 2 m/s 586 mmHg 9%
    20:00 +31°C° 0 mm 2 m/s 586 mmHg 11%
    21:00 +30°C° 0 mm 2 m/s 586 mmHg 18%
    22:00 +29°C° 0 mm 2 m/s 586 mmHg 25%
    23:00 +27°C° 0 mm 2 m/s 586 mmHg 32%
    Voir plus